Regional Weather Roundup
Issued by NWS

Home | Current Version | Previous Version | Graphics & Text | Print | Product List | Glossary On
Versions: 1 2 3 4 5 6 7 8 9 10 11 12 13 14 15 16 17 18 19 20 21 22 23 24 25 26 27
000
ASUS45 KTFX 201110
RWRMT
MONTANA REGIONAL WEATHER ROUNDUP
NATIONAL WEATHER SERVICE GREAT FALLS MT
500 AM MDT WED SEP 20 2017

NOTE: "FAIR" INDICATES FEW OR NO CLOUDS BELOW 12000 FEET WITH NO
SIGNIFICANT WEATHER AND/OR OBSTRUCTIONS TO VISIBILITY.

MTZ001>007-043-201200-
WEST OF THE DIVIDE

CITY           SKY/WX    TMP DP  RH WIND       PRES   REMARKS
KALISPELL      CLOUDY    41  40  96 S9        29.64F
MISSOULA       CLOUDY    37  36  96 W5        29.71S
BUTTE          CLOUDY    35  29  78 E3        29.74S
MULLAN PASS    SNOW      31  29  92 VRB7      29.63F VSB 1/4 WCI  24
ANACONDA         N/A     37  28  70 S9        29.71F WCI  31
DEER LODGE       N/A     39  30  70 SE13      29.70F WCI  32
EUREKA           N/A     45  36  70 CALM      29.60S
HAMILTON         N/A     41  34  75 S7        29.69F
LIBBY            N/A     39  39 100 E3        29.61F
$$

MTZ008-052>055-201200-
SOUTHWEST MONTANA

CITY           SKY/WX    TMP DP  RH WIND       PRES   REMARKS
BOZEMAN        CLOUDY    43  30  60 SW3       29.74F
DILLON         CLOUDY    33  25  72 SE7       29.75F WCI  27
W YELLOWSTONE  CLOUDY    32  30  93 SW13G21   29.85S WCI  22
ENNIS          MOCLDY    39  27  60 S13G20    29.82F WCI  32
$$

MTZ009-010-012-014-046-048-049-054-201200-
EAST SLOPES AND CENTRAL MONTANA

CITY           SKY/WX    TMP DP  RH WIND       PRES   REMARKS
CUT BANK       MOCLDY    41  30  65 SW21      29.52F
GREAT FALLS    PTCLDY    44  26  49 SW15      29.60F
MALMSTROM AFB  CLEAR     38  29  68 SW9       29.61F WCI  32
HELENA         CLEAR     45  28  51 SW8       29.67S
BOWMANS CRNR     N/A     39  28  64 S18       29.59S WCI  30
CHOTEAU          N/A     45  28  53 SW20      29.56F
FAIRFIELD        N/A     41  29  61 SW15      29.57F
POWER            N/A     40  28  64 S14       29.58S
RAYNESFORD     MOCLDY    44  25  48 SW8       29.64S
ULM            MOCLDY    43  27  54 SW10G17   29.62S
$$

MTZ011-013-016-021-045-047-050-051-201200-
NORTH CENTRAL MONTANA

CITY           SKY/WX    TMP DP  RH WIND       PRES   REMARKS
HAVRE          CLEAR     42  33  70 SW14      29.54F
LEWISTOWN      CLEAR     43  26  51 W14       29.63S
N BAR RANCH      N/A     45  21  39 W16G26    29.63F
CHINOOK          N/A     45  32  61 W8        29.54S
DENTON           N/A     44  27  51 SW17G25   29.57F
GEYSER           N/A     43  26  51 W24G31    29.58R
GRASS RANGE      N/A     43  26  49 W10       29.57R
JUDITH GAP       N/A     38  28  67 S12       29.66R WCI  31
WINIFRED         N/A     43  29  56 SW23      29.58F
$$

MTZ017>020-022>027-061-062-201200-
NORTHEAST MONTANA

CITY           SKY/WX    TMP DP  RH WIND       PRES   REMARKS
GLASGOW        MOCLDY    42  35  76 W5        29.57S
JORDAN           N/A     40  34  79 SW10      29.62R
SIDNEY         CLEAR     41  38  89 S8        29.59S
WOLF POINT     PTCLDY    35  33  92 W3        29.59R
MALTA          PTCLDY    39  34  81 CALM      29.56F
PLENTYWOOD       N/A     41  36  81 CALM      29.54F
POPLAR           N/A     43  37  81 S3        29.58R
$$

MTZ028>42-056>058-201200-
SOUTHCENTRAL AND SOUTHEAST MONTANA

CITY           SKY/WX    TMP DP  RH WIND       PRES   REMARKS
BAKER          CLEAR     45  35  68 SW14      29.68R
BILLINGS       CLEAR     44  34  67 W12       29.69F
LIVINGSTON     CLOUDY    42  31  64 NW9       29.72F
MILES CITY     CLEAR     43  35  73 SW8       29.67R
BIG TIMBER     PTCLDY    41  30  65 W22G29    29.71S
HARLOWTON        N/A     39  30  68 MISG      29.67R
LAUREL           N/A     41  34  75 SW14      29.70F
$$

REGIONAL REPORTS...DAKOTAS

CITY           SKY/WX    TMP DP  RH WIND       PRES   REMARKS
WILLISTON      CLEAR     40  37  89 SW6       29.58R
MINOT          CLEAR     47  42  83 SW10      29.56R
DICKINSON      CLEAR     42  39  89 SW9       29.64R
BEACH            N/A     43  39  87 SW12      29.68R
CROSBY           N/A     43  39  87 SW10      29.53F
TIOGA            N/A     39  39 100 SW6       29.58R
WATFORD CITY     N/A     39  37  93 SW3       29.59S
BISMARCK       CLEAR     45  41  86 SW5       29.68R
GRAND FORKS    CLOUDY    56  53  90 W9        29.52R
FARGO          CLOUDY    55  51  86 SW8       29.59R
BUFFALO SD       N/A     40  37  89 SW9       29.66R
$$

REGIONAL REPORTS...WYOMING/IDAHO/WASHINGTON

CITY           SKY/WX    TMP DP  RH WIND       PRES   REMARKS
GILLETTE       CLEAR     42  31  64 SW17      29.77R
SHERIDAN       CLEAR     48  25  40 VRB3      29.74R
BUFFALO WY     CLEAR     39  27  62 SW9       29.78R
CODY           CLEAR     43  25  49 W7        29.81R
IDAHO FALLS    CLOUDY    40  32  73 SW12      29.89R
SALMON         CLOUDY    39  37  92 CALM      29.77F
BOISE          CLOUDY    52  37  56 MISG      29.77F
SPOKANE        MOCLDY    43  41  93 S10       29.63F
$$

REGIONAL REPORTS...ALBERTA

CITY           SKY/WX    TMP DP  RH WIND       PRES   REMARKS
EDMONTON       CLOUDY    39  37  93 NW2       29.32F
CALGARY        MOCLDY    36  23  60 S6        29.38F WCI  31
LETHBRIDGE     CLEAR     37  28  70 SW10      29.47S WCI  30
MEDICINE HAT   CLEAR     39  32  75 SW13G18   29.45S WCI  32
$$

REGIONAL REPORTS...SASKATCHEWAN

CITY           SKY/WX    TMP DP  RH WIND       PRES   REMARKS
SWIFT CURRENT  CLEAR     36  27  69 SW14      29.44F WCI  27
REGINA         PTCLDY    37  36  93 S3        29.47F
SASKATOON      PTCLDY    34  32  93 SW8       29.42S WCI  27
$$




USA.gov is the U.S. government's official web portal to all federal, state and local government web resources and services.